TimeEST,TemperatureF,Dew PointF,Humidity,Sea Level PressureIn,VisibilityMPH,Wind Direction,Wind SpeedMPH,Gust SpeedMPH,PrecipitationIn,Events,Conditions,WindDirDegrees,DateUTC
12:33 AM,46.4,46.4,100,29.71,6.0,Calm,Calm,-,N/A,,Overcast,0,2012-12-18 05:33:00
12:53 AM,48.0,46.0,93,29.73,7.0,Calm,Calm,-,N/A,,Overcast,0,2012-12-18 05:53:00
1:05 AM,48.2,46.4,93,29.71,8.0,Calm,Calm,-,N/A,,Overcast,0,2012-12-18 06:05:00
1:53 AM,48.0,45.0,89,29.73,10.0,Calm,Calm,-,N/A,,Scattered Clouds,0,2012-12-18 06:53:00
2:53 AM,48.9,44.1,83,29.75,10.0,Variable,4.6,-,N/A,,Clear,0,2012-12-18 07:53:00
3:53 AM,48.0,39.9,74,29.77,10.0,Variable,6.9,-,N/A,,Clear,0,2012-12-18 08:53:00
4:53 AM,46.9,39.0,74,29.80,10.0,WSW,4.6,-,N/A,,Scattered Clouds,240,2012-12-18 09:53:00
5:53 AM,46.0,37.9,73,29.84,10.0,Variable,6.9,-,N/A,,Overcast,0,2012-12-18 10:53:00
6:53 AM,46.0,37.9,73,29.86,10.0,WSW,4.6,-,N/A,,Overcast,250,2012-12-18 11:53:00
7:53 AM,45.0,37.9,76,29.91,10.0,Variable,4.6,-,N/A,,Overcast,0,2012-12-18 12:53:00
8:53 AM,46.0,37.9,73,29.93,10.0,Calm,Calm,-,N/A,,Mostly Cloudy,0,2012-12-18 13:53:00
9:53 AM,48.0,36.0,63,29.95,10.0,West,8.1,-,N/A,,Mostly Cloudy,260,2012-12-18 14:53:00
10:53 AM,48.9,33.1,54,29.98,10.0,WSW,6.9,-,N/A,,Partly Cloudy,240,2012-12-18 15:53:00
11:53 AM,50.0,34.0,54,29.98,10.0,SSW,4.6,-,N/A,,Clear,210,2012-12-18 16:53:00
12:53 PM,52.0,34.0,50,29.94,10.0,Variable,3.5,-,N/A,,Clear,0,2012-12-18 17:53:00
1:53 PM,53.1,34.0,48,29.94,10.0,SW,8.1,-,N/A,,Clear,220,2012-12-18 18:53:00
2:53 PM,54.0,33.1,45,29.93,10.0,WSW,5.8,-,N/A,,Clear,240,2012-12-18 19:53:00
3:53 PM,53.1,32.0,45,29.95,10.0,SW,6.9,-,N/A,,Clear,230,2012-12-18 20:53:00
4:53 PM,53.1,32.0,45,29.95,10.0,SSW,5.8,-,N/A,,Clear,210,2012-12-18 21:53:00
5:53 PM,48.0,33.1,56,29.95,10.0,Calm,Calm,-,N/A,,Clear,0,2012-12-18 22:53:00
6:53 PM,44.1,35.1,71,29.96,10.0,Calm,Calm,-,N/A,,Clear,0,2012-12-18 23:53:00
7:53 PM,41.0,35.1,79,29.97,10.0,Calm,Calm,-,N/A,,Clear,0,2012-12-19 00:53:00
8:53 PM,39.9,35.1,83,29.97,10.0,Calm,Calm,-,N/A,,Clear,0,2012-12-19 01:53:00
9:53 PM,39.9,34.0,79,29.98,10.0,SSW,3.5,-,N/A,,Clear,210,2012-12-19 02:53:00
10:53 PM,42.1,34.0,73,29.98,10.0,SW,5.8,-,N/A,,Clear,230,2012-12-19 03:53:00
11:53 PM,42.1,33.1,70,29.99,10.0,SW,5.8,-,N/A,,Clear,220,2012-12-19 04:53:00